Wetbulb
64.63 65.23 64.82 64.87 65.05 64.87 63.41 63.32 61.74 58.66 58.19 61.99 64.03 68.77 69.67 71.55 73.45 70.67 72.80 72.15 73.00 71.90 70.78 70.40 71.04 71.97 73.11 73.25 73.29 72.22 72.21 72.03 72.93 72.58 72.14 72.81 73.06 72.68
64.08 64.03 63.58 63.87 64.47 64.56 64.36 63.79 62.75 60.63 57.71 61.74 64.38 67.32 67.61 69.05 70.02 67.70 70.28 72.86 72.02 71.22 70.53 69.93 70.06 70.86 71.24 71.47 70.82 71.08 71.07 71.16 71.25 71.18 71.25 71.59 71.77 72.10
64.72 64.83 64.91 65.91 65.70 65.98 66.58 65.51 63.85 62.99 59.41 61.25 63.06 64.42 64.71 66.39 67.84 67.58 69.27 68.19 68.53 69.26 70.58 70.20 69.64 69.49 69.76 69.85 69.83 69.76 69.76 69.66 69.66 70.38 70.74 71.20 71.41 71.58
63.42 64.08 63.92 66.44 63.81 64.38 64.73 64.42 64.36 64.69 63.40 61.20 63.09 63.92 65.03 65.98 66.23 65.45 68.73 70.84 67.08 70.13 69.70 69.51 69.00 68.53 68.08 67.59 67.55 67.25 66.96 67.07 67.59 68.15 69.11 70.13 70.78 70.74
63.31 63.39 63.85 63.11 61.52 61.86 61.90 61.81 63.65 64.27 64.12 62.84 61.62 63.33 65.22 66.97 66.64 68.63 67.05 68.23 70.73 71.46 68.80 69.60 69.40 67.75 67.12 66.33 65.55 64.46 62.98 62.60 63.54 64.62 65.58 66.28 67.52 68.21
61.45 62.15 63.79 62.97 61.13 60.40 60.44 60.56 60.73 60.92 61.38 61.35 61.76 62.18 65.39 66.77 66.95 65.29 63.59 65.77 66.56 70.17 71.36 71.68 69.28 68.58 67.23 65.88 65.52 64.73 62.15 60.44 59.70 60.24 61.65 61.79 63.45 64.65
60.37 59.52 59.91 64.27 65.33 63.17 60.37 59.54 59.60 58.96 59.83 60.27 60.57 61.31 62.74 63.42 63.04 64.34 63.00 64.27 64.30 66.44 66.88 68.64 68.78 67.79 68.13 67.41 66.94 65.35 63.87 62.59 60.97 60.26 59.72 59.52 59.88 60.70
58.20 58.89 57.50 64.02 64.13 65.06 65.37 65.13 63.94 58.60 58.07 58.97 59.73 60.09 60.74 61.63 62.21 62.13 61.95 61.61 60.92 65.93 65.32 66.18 67.43 64.93 64.22 63.58 63.90 63.92 63.42 63.58 61.57 60.84 60.06 59.54 59.36 59.90
60.20 57.51 57.65 63.25 61.51 59.75 61.04 61.89 61.54 64.01 63.99 60.09 58.60 60.00 59.60 60.47 59.82 58.80 58.66 58.71 59.79 63.41 63.80 62.40 65.91 63.96 63.50 62.67 62.23 62.28 62.37 61.23 60.49 60.15 59.86 59.28 58.80 58.63
60.24 59.29 56.28 57.61 57.06 56.77 56.37 56.56 58.56 59.89 60.86 63.36 61.80 62.61 61.11 60.01 59.40 59.11 58.58 59.10 61.36 62.55 61.70 59.75 64.89 63.84 62.13 61.51 62.17 61.52 60.04 57.99 56.95 56.09 55.17 54.04 53.03 52.61
59.45 59.92 56.15 58.19 58.48 58.39 55.05 54.97 56.10 57.91 59.51 62.33 62.60 62.00 61.43 61.02 60.42 58.21 59.36 57.98 57.11 59.30 56.93 60.24 62.61 62.14 61.19 59.21 58.16 60.39 58.76 57.00 55.79 55.82 55.80 54.47 52.48 53.28
55.15 53.73 60.21 57.43 57.64 56.69 53.25 53.06 52.36 55.25 54.49 55.60 56.35 57.98 61.37 60.51 61.12 58.77 59.08 55.80 54.91 56.38 55.51 54.96 57.55 57.66 56.81 63.15 61.04 57.54 56.12 56.03 54.78 54.37 55.01 54.15 52.15 51.67
52.26 51.49 54.91 56.64 55.06 54.86 55.32 52.13 52.73 54.62 54.74 53.19 54.15 55.81 58.40 62.63 62.74 61.19 59.29 56.97 54.75 55.36 56.93 53.65 53.99 51.28 52.37 50.93 51.30 59.83 59.25 60.05 57.04 56.92 53.50 52.80 52.28 51.56
49.04 52.47 54.08 55.42 54.45 54.47 54.58 54.89 56.21 56.10 52.70 53.07 53.67 55.44 57.11 60.01 61.12 60.43 58.09 56.74 56.98 55.52 55.93 53.16 50.60 50.24 48.41 46.98 47.81 51.23 52.53 52.40 55.50 52.58 56.10 54.08 52.49 52.86
50.43 51.93 53.40 53.22 52.86 53.18 54.22 54.85 55.80 52.52 52.72 53.07 52.87 51.45 54.45 54.76 54.39 53.69 54.66 55.77 55.81 56.52 57.81 54.58 50.96 50.32 49.07 47.11 48.46 49.17 49.49 50.52 52.51 52.11 52.64 52.03 51.33 51.51
54.17 51.62 52.86 53.41 54.74 55.05 55.34 53.44 53.17 53.31 53.09 52.47 51.32 50.89 52.73 52.72 51.70 51.67 50.93 50.68 53.31 53.43 56.40 55.04 53.66 51.97 50.02 50.44 50.16 48.50 48.92 49.60 50.89 52.34 50.06 50.19 51.26 51.69
52.01 52.13 50.81 50.58 51.95 52.98 53.19 52.78 52.59 54.14 54.06 54.85 52.13 52.18 53.56 53.33 53.15 52.77 51.33 49.19 48.48 47.95 51.65 55.27 55.16 54.32 53.50 50.92 49.25 49.95 49.92 50.72 50.26 50.45 49.53 48.26 49.32 50.45
46.87 47.82 48.73 49.88 50.55 51.42 53.91 53.91 54.54 56.23 55.24 55.76 53.95 51.99 51.64 51.87 51.76 52.16 52.05 49.68 48.30 48.59 49.13 53.32 52.81 52.51 52.58 54.05 57.45 52.47 51.10 49.58 49.62 50.07 49.20 47.44 47.72 50.58
47.48 48.24 49.05 49.81 50.30 51.06 53.52 53.71 53.16 53.90 56.09 55.12 54.05 53.44 52.24 51.43 51.37 50.34 50.83 50.24 50.46 50.36 50.80 51.55 52.96 50.92 48.37 47.01 50.72 55.13 49.65 48.86 48.95 49.01 49.53 49.21 48.66 50.00
47.43 49.80 50.76 51.10 51.42 51.76 52.83 53.74 54.35 54.47 54.11 53.69 53.51 53.17 52.66 51.89 51.01 50.80 51.12 51.19 50.83 49.81 49.84 51.43 52.84 51.73 49.83 48.32 49.51 51.39 51.48 50.54 49.55 49.26 49.08 49.58 51.11 54.43
52.72 52.98 51.93 52.61 53.28 53.61 54.80 57.17 56.68 54.65 54.55 53.80 53.95 54.46 53.88 52.84 51.57 51.44 51.06 50.58 50.49 49.98 49.26 48.86 50.78 54.85 52.88 53.11 50.26 50.00 52.21 51.59 52.66 51.40 50.30 48.74 48.11 47.10
55.75 57.70 58.20 57.72 57.34 56.96 57.38 56.92 57.48 57.33 56.47 56.22 55.49 53.79 53.49 53.17 52.34 51.44 51.11 50.41 49.70 49.60 49.40 50.42 51.23 52.22 51.36 51.42 49.93 49.75 50.56 52.46 54.59 53.40 54.63 53.16 47.73 45.04
56.14 56.04 56.24 55.45 55.01 56.20 55.98 54.55 54.45 53.95 53.29 54.55 54.97 56.08 57.30 56.44 55.05 54.99 53.44 51.14 50.54 50.13 50.05 49.64 50.91 52.51 51.76 51.80 52.32 52.39 50.78 52.87 53.43 52.47 50.39 53.71 54.12 54.07
MSLP
1016.11 1016.06 1016.14 1016.10 1015.98 1015.83 1015.63 1015.34 1015.23 1015.71 1015.12 1014.57 1014.24 1013.81 1013.56 1013.45 1013.28 1013.21 1013.13 1013.11 1013.24 1013.54 1013.62 1013.90 1014.22 1014.40 1014.42 1014.48 1014.55 1014.85 1015.21 1015.52 1015.66 1015.67 1015.85 1016.03 1016.31 1016.60
1016.17 1016.07 1016.04 1015.99 1016.06 1016.03 1015.72 1015.34 1015.27 1015.38 1015.35 1014.64 1014.42 1014.04 1013.48 1013.04 1012.60 1012.61 1012.58 1012.60 1013.03 1013.20 1013.42 1013.65 1013.83 1013.85 1013.97 1014.08 1014.21 1014.53 1014.76 1015.11 1015.25 1015.40 1015.42 1015.41 1015.50 1015.81
1016.44 1016.26 1016.09 1015.88 1015.96 1015.96 1015.85 1015.71 1015.75 1015.70 1015.75 1015.07 1014.45 1013.99 1013.65 1013.38 1012.89 1012.55 1012.52 1012.74 1012.70 1012.56 1012.65 1012.98 1013.11 1013.25 1013.39 1013.66 1013.95 1014.24 1014.49 1014.75 1014.87 1014.97 1015.10 1015.11 1015.19 1015.47
1016.48 1016.49 1016.39 1016.14 1016.16 1015.95 1015.83 1015.95 1015.99 1015.76 1016.06 1015.75 1014.99 1014.40 1013.81 1013.17 1012.81 1012.87 1012.58 1012.53 1012.39 1012.26 1012.25 1012.55 1012.71 1012.69 1013.11 1013.58 1013.88 1014.06 1014.32 1014.40 1014.45 1014.60 1014.69 1014.81 1014.96 1015.29
1016.59 1016.57 1016.56 1016.53 1016.56 1016.43 1016.28 1016.15 1015.99 1015.68 1015.66 1015.66 1015.38 1014.65 1013.91 1013.44 1013.10 1012.84 1012.83 1012.64 1011.93 1011.59 1011.83 1011.89 1012.20 1012.82 1013.21 1013.38 1013.46 1013.75 1013.93 1014.12 1014.16 1014.25 1014.37 1014.58 1014.81 1014.96
1016.64 1016.52 1016.63 1016.44 1016.55 1016.55 1016.63 1016.56 1016.35 1016.14 1015.81 1015.59 1015.34 1014.99 1014.44 1014.02 1013.68 1013.47 1013.41 1013.07 1012.66 1012.04 1011.76 1011.96 1012.24 1012.84 1013.16 1013.43 1013.53 1013.53 1013.68 1013.76 1013.91 1014.13 1014.27 1014.43 1014.45 1014.61
1016.53 1016.53 1016.47 1016.30 1016.36 1016.43 1016.67 1016.85 1016.82 1016.63 1016.34 1016.08 1015.97 1015.72 1015.27 1014.87 1014.86 1014.44 1014.10 1013.80 1013.26 1013.02 1012.80 1012.64 1012.72 1013.01 1013.33 1013.61 1013.94 1013.67 1013.75 1013.80 1013.90 1014.02 1014.19 1014.29 1014.39 1014.48
1016.68 1016.43 1016.19 1016.18 1016.41 1016.51 1016.63 1016.62 1016.75 1016.82 1016.61 1016.47 1016.29 1016.21 1015.75 1015.45 1015.18 1014.97 1014.70 1014.53 1014.24 1013.20 1013.43 1013.34 1013.16 1013.55 1013.77 1013.83 1013.91 1013.93 1013.80 1013.87 1014.02 1014.11 1014.15 1014.22 1014.27 1014.33
1016.65 1016.29 1016.01 1016.29 1016.41 1016.48 1016.55 1016.38 1016.34 1016.18 1016.01 1016.26 1016.27 1016.16 1015.83 1015.49 1015.31 1015.13 1015.04 1014.93 1014.59 1013.66 1013.57 1013.56 1013.40 1013.81 1013.78 1013.87 1014.02 1014.15 1014.03 1013.98 1014.03 1014.03 1014.06 1014.13 1014.10 1013.99
1016.39 1016.15 1015.84 1016.18 1016.34 1016.45 1016.49 1016.39 1016.26 1015.90 1015.55 1015.57 1015.55 1015.47 1015.38 1015.23 1015.13 1015.09 1015.10 1014.86 1014.24 1014.00 1013.59 1013.80 1013.39 1013.76 1013.84 1013.76 1013.99 1014.21 1014.28 1014.27 1014.24 1014.23 1014.19 1014.22 1014.11 1013.89
1016.23 1015.74 1015.61 1015.91 1016.21 1016.44 1016.59 1016.66 1016.41 1015.94 1015.29 1015.13 1015.05 1014.89 1014.89 1014.87 1014.86 1015.08 1015.11 1015.18 1014.93 1014.54 1014.26 1014.01 1013.87 1013.93 1013.94 1013.94 1014.01 1014.18 1014.31 1014.33 1014.40 1014.38 1014.38 1014.33 1014.12 1013.92
1016.32 1016.25 1015.78 1015.90 1016.25 1016.46 1016.69 1016.82 1016.62 1016.20 1015.80 1015.47 1015.03 1014.75 1014.58 1014.54 1014.60 1014.96 1015.10 1015.25 1015.31 1015.17 1014.81 1014.63 1014.24 1014.18 1014.35 1013.98 1014.00 1014.02 1014.10 1014.17 1014.27 1014.35 1014.43 1014.41 1014.35 1014.27
1016.81 1016.57 1016.38 1016.27 1016.35 1016.45 1016.52 1016.60 1016.40 1016.07 1015.80 1015.72 1015.33 1014.78 1014.31 1014.07 1014.14 1014.38 1014.66 1014.85 1014.96 1015.10 1014.68 1014.62 1014.64 1014.69 1014.83 1014.76 1014.15 1013.77 1013.84 1013.89 1014.01 1013.93 1014.04 1014.17 1014.14 1014.44
1016.75 1016.57 1016.40 1016.34 1016.27 1016.26 1016.28 1016.13 1016.06 1015.92 1015.85 1015.78 1015.48 1014.88 1013.99 1013.64 1013.71 1014.10 1014.13 1014.25 1014.22 1014.37 1014.34 1014.41 1014.85 1014.99 1015.15 1015.24 1014.99 1014.43 1014.13 1013.90 1013.92 1014.03 1013.80 1013.83 1014.05 1014.13
1016.24 1016.07 1016.03 1016.03 1015.94 1015.83 1015.78 1015.69 1015.59 1015.67 1015.79 1015.69 1015.25 1014.86 1014.48 1014.16 1013.99 1014.16 1014.09 1014.04 1014.02 1013.93 1013.97 1014.18 1014.56 1014.75 1015.04 1015.28 1015.42 1015.02 1014.90 1014.27 1013.93 1013.98 1014.07 1014.19 1014.22 1014.09
1015.97 1015.94 1015.69 1015.42 1015.31 1015.28 1015.11 1015.09 1015.13 1015.20 1015.40 1015.14 1014.78 1014.38 1014.17 1014.13 1013.98 1013.65 1013.90 1014.06 1014.31 1014.19 1013.79 1013.84 1014.14 1014.56 1014.84 1014.84 1015.00 1014.90 1014.74 1014.80 1014.13 1014.12 1014.18 1014.15 1013.98 1013.84
1015.58 1015.69 1015.64 1015.49 1015.27 1014.89 1014.54 1014.34 1014.35 1014.49 1014.73 1014.39 1014.57 1014.37 1014.15 1013.93 1013.87 1013.65 1013.76 1013.95 1014.15 1014.15 1014.02 1013.68 1013.68 1013.95 1014.25 1014.38 1014.71 1014.50 1014.47 1014.53 1014.25 1014.10 1014.16 1014.36 1013.95 1013.68
1015.49 1015.58 1015.34 1015.12 1015.03 1014.64 1014.32 1013.91 1013.73 1013.66 1013.71 1013.79 1014.00 1014.13 1013.94 1013.86 1013.82 1013.67 1013.65 1013.73 1013.88 1013.72 1013.72 1013.60 1013.76 1014.18 1014.18 1013.76 1013.45 1013.71 1014.18 1014.24 1013.82 1013.72 1013.84 1014.19 1014.08 1013.43
1015.19 1015.07 1014.95 1014.70 1014.35 1014.01 1013.68 1013.43 1013.25 1012.81 1012.60 1012.88 1013.17 1013.36 1013.43 1013.46 1013.49 1013.47 1013.44 1013.52 1013.43 1013.25 1013.01 1012.90 1013.27 1013.73 1014.12 1013.74 1012.96 1012.82 1013.34 1013.49 1013.38 1013.60 1013.47 1013.57 1013.45 1012.87
1014.99 1014.86 1014.60 1014.28 1013.92 1013.53 1013.12 1012.84 1012.63 1012.32 1012.38 1012.52 1012.70 1012.78 1012.87 1012.91 1013.01 1013.11 1013.06 1013.15 1013.07 1012.84 1012.67 1012.47 1012.54 1012.71 1012.98 1012.97 1012.79 1012.33 1011.97 1012.24 1012.80 1012.87 1012.82 1012.43 1012.15 1011.64
1014.39 1014.25 1013.95 1013.73 1013.50 1013.09 1012.72 1012.18 1011.89 1011.96 1011.75 1011.85 1011.99 1012.09 1012.22 1012.46 1012.53 1012.51 1012.47 1012.38 1012.34 1012.36 1012.44 1012.19 1011.58 1011.17 1011.35 1011.73 1012.17 1012.16 1011.38 1011.07 1011.18 1011.65 1011.69 1011.97 1011.84 1011.56
1014.30 1014.14 1014.24 1013.86 1013.82 1013.66 1013.23 1012.68 1012.32 1012.25 1012.46 1012.55 1012.55 1012.03 1011.60 1011.65 1011.76 1011.82 1011.83 1011.84 1011.72 1011.62 1011.52 1011.23 1010.75 1010.91 1011.26 1011.39 1011.48 1011.46 1010.97 1010.38 1010.03 1010.29 1010.37 1010.48 1010.91 1010.87
1014.66 1014.55 1014.33 1014.15 1014.19 1013.87 1013.58 1013.29 1013.01 1012.93 1012.95 1012.71 1012.63 1012.80 1012.39 1011.90 1011.56 1011.55 1011.07 1010.92 1010.88 1010.87 1010.76 1010.71 1010.55 1010.46 1010.45 1010.51 1010.55 1010.58 1010.32 1010.05 1009.91 1009.95 1009.84 1009.17 1009.10 1009.07
Wind_Speed
4 5 3 2 3 3 3 2 3 3 3 3 4 5 4 2 2 3 6 10 12 11 12 11 12 12 13 15 15 13 13 10 12 12 11 18 21 21
1 3 4 3 4 3 3 3 2 1 2 0 1 2 3 3 2 2 1 8 13 13 15 15 13 12 12 11 9 10 10 10 11 10 11 10 21 22
4 4 5 6 4 4 5 4 4 3 2 5 2 3 3 3 4 2 2 4 4 10 14 13 14 12 12 11 11 10 10 10 11 10 10 9 12 17
3 4 3 3 5 6 4 6 4 3 2 3 3 4 4 6 5 4 3 4 3 2 11 11 11 13 8 5 6 6 9 8 8 9 10 9 9 9
2 4 3 4 3 3 4 5 4 4 3 1 3 2 2 3 4 3 3 4 6 6 9 11 10 5 6 7 7 6 7 6 6 7 6 6 8 9
4 4 1 3 2 3 4 4 5 5 5 4 4 4 2 3 2 3 5 3 4 5 5 5 5 8 7 4 5 5 5 3 3 3 5 5 7 8
3 4 3 3 4 4 2 3 4 4 4 4 3 3 4 4 3 3 3 2 3 4 4 5 3 4 4 7 4 6 5 5 4 3 3 3 4 5
1 3 4 8 3 1 4 6 5 2 3 2 2 3 3 2 3 3 3 3 4 2 4 3 2 4 2 3 6 6 8 8 6 5 4 2 1 3
4 1 2 4 6 4 6 6 6 10 10 2 2 3 2 1 2 4 3 2 3 4 3 2 2 3 2 4 6 6 7 7 7 7 6 3 1 2
5 6 3 5 3 3 3 5 6 6 5 4 6 6 4 4 2 2 2 4 4 1 1 0 1 2 2 2 6 6 6 5 5 4 4 2 3 5
7 6 6 6 6 4 3 5 6 5 7 8 7 7 8 7 3 3 3 3 3 3 5 2 2 1 2 1 3 8 7 5 2 1 4 5 7 8
6 7 8 6 8 4 1 3 4 4 5 8 8 6 7 7 7 4 2 2 1 2 3 2 4 3 2 1 3 4 3 6 7 7 8 7 6 3
3 4 1 6 5 4 4 4 5 3 6 5 6 6 6 6 4 4 4 3 2 1 3 2 2 3 2 2 3 2 3 2 2 4 8 8 8 1
4 2 2 4 6 8 5 9 10 5 3 4 4 6 7 2 4 5 5 4 4 5 3 3 2 2 1 2 1 4 3 3 1 2 2 3 4 7
3 6 8 9 10 7 11 12 10 3 3 3 4 3 1 2 2 1 4 4 3 3 4 3 3 2 3 3 2 2 2 3 2 2 2 2 1 1
6 6 7 8 7 7 6 5 4 4 4 4 4 3 2 2 2 1 1 1 1 4 6 6 6 4 2 3 4 3 2 1 2 1 1 1 2 1
4 2 3 3 4 5 5 5 5 4 5 4 4 4 3 2 2 2 2 2 3 2 3 3 5 5 5 3 2 4 4 2 2 1 2 1 3 4
2 3 3 4 5 5 5 5 4 7 6 5 4 4 3 3 3 2 2 4 4 3 3 3 3 1 3 5 14 6 3 3 3 2 1 2 3 5
3 4 4 5 6 6 5 3 4 5 6 6 6 5 5 4 3 3 3 3 3 4 4 3 4 5 4 4 4 6 5 4 1 1 3 5 4 6
2 4 5 5 5 5 6 5 5 4 4 4 4 4 5 4 3 4 4 4 4 4 4 3 3 5 6 6 5 5 13 5 4 4 4 3 5 8
3 4 5 5 7 6 6 8 7 5 5 5 5 5 5 4 5 5 5 7 6 3 4 4 6 12 4 3 2 3 5 14 10 7 4 4 4 2
3 4 4 3 4 5 5 4 5 6 6 7 7 5 4 4 5 5 5 5 5 5 5 5 5 2 4 5 6 6 4 5 8 16 12 9 6 4
4 4 3 4 5 5 4 4 5 4 4 4 4 6 6 5 4 7 7 6 6 5 5 4 3 2 4 6 8 8 6 6 3 3 4 15 19 20
Wind_Direction
21 15 14 360 8 349 316 346 125 5 302 4 33 11 36 38 201 136 185 199 200 202 212 220 223 227 236 236 228 231 236 228 243 245 247 223 215 231
347 6 356 332 349 344 340 356 25 127 320 17 238 264 321 299 215 44 281 177 221 200 204 206 214 217 222 228 224 226 235 235 244 242 244 248 217 215
354 67 36 27 13 14 14 9 17 17 3 312 312 293 296 285 300 344 236 219 253 233 215 199 207 215 223 223 225 229 234 230 237 232 238 234 223 213
86 71 59 46 25 10 10 7 4 5 46 292 290 326 325 317 243 236 297 334 265 211 195 201 206 214 217 237 251 242 239 233 233 232 235 227 212 206
51 81 96 92 53 18 3 5 355 347 350 335 299 285 274 360 348 46 31 349 17 0 219 199 205 150 180 223 230 243 250 253 236 229 222 233 236 233
30 35 143 113 112 43 13 5 355 351 349 357 343 327 356 343 14 11 16 345 349 1 13 199 200 131 164 201 213 219 223 229 266 256 245 237 244 252
36 27 25 299 163 137 101 353 359 350 341 355 345 341 346 6 1 331 13 331 316 41 1 12 49 92 85 90 95 114 125 126 147 187 233 234 244 260
328 47 6 35 126 356 357 322 272 280 306 326 330 337 322 345 339 346 357 10 343 8 21 339 85 91 110 87 100 108 104 112 110 106 94 84 332 293
312 217 16 67 72 52 3 345 330 318 220 202 261 281 293 298 331 335 349 333 259 291 33 296 139 110 141 116 132 140 144 151 157 155 148 151 249 276
291 242 182 135 148 99 357 339 327 325 292 227 212 249 247 266 241 200 260 282 285 344 1 110 346 147 160 144 174 191 203 197 177 166 165 183 314 315
308 257 201 165 166 97 18 334 329 330 346 349 297 267 273 279 274 20 358 33 333 348 1 21 335 98 173 194 219 221 229 225 229 309 311 324 360 28
335 352 312 140 155 134 143 302 314 292 341 332 327 320 280 261 245 199 260 105 73 353 311 51 355 39 4 286 193 206 214 235 236 243 256 274 298 14
310 340 63 130 158 201 221 239 237 273 309 313 303 299 286 255 192 190 201 152 144 194 264 73 17 6 57 316 320 328 184 254 229 252 241 253 270 326
257 249 212 233 248 251 246 245 259 273 299 294 300 293 297 195 144 155 198 209 191 178 212 127 165 133 111 346 297 341 350 321 304 282 283 281 283 257
237 232 216 253 250 259 254 250 253 249 267 280 280 276 287 247 153 193 207 231 258 226 220 181 159 191 140 173 256 283 352 303 5 55 72 92 204 266
278 276 259 253 234 243 261 251 239 226 224 248 255 253 281 274 274 214 166 228 160 290 254 211 195 170 201 213 174 273 244 267 336 94 117 340 330 286
217 268 277 285 292 283 265 241 233 228 227 240 247 266 274 290 285 232 210 205 183 223 287 242 216 202 219 178 260 230 258 283 234 216 87 315 290 282
167 228 250 264 266 261 263 265 223 232 229 232 232 230 234 241 263 289 235 202 207 239 221 238 169 80 338 278 204 247 188 204 229 219 207 176 274 279
216 242 252 251 259 267 265 252 246 211 210 200 192 202 211 231 240 255 260 235 226 224 244 216 169 161 204 230 281 194 175 214 198 267 225 215 221 251
252 260 261 265 264 259 265 258 262 254 207 213 217 223 226 218 234 244 244 230 242 255 260 259 210 184 183 203 200 235 205 203 184 224 245 247 243 272
242 258 255 265 275 277 272 269 250 232 214 202 208 203 213 207 232 236 241 239 227 216 232 233 228 211 197 108 94 264 260 213 204 196 222 204 243 279
351 27 350 19 7 354 340 3 41 57 46 25 343 308 265 221 225 233 232 231 238 227 232 246 263 185 177 183 220 234 248 268 241 228 224 201 174 226
14 350 352 8 356 347 352 12 23 38 27 17 22 335 334 330 299 279 243 228 227 237 224 242 255 207 225 202 219 241 239 245 220 212 255 233 239 242